Overview Statistics Trail Chart Weather Telemetry Raw packets
 

This is the latest recevied weather packets stored in our database for station/object K6CED. If no packets are shown the sender has not sent any weather packets the latest 10 day(s).

<< 103 104 105 106 107 108 109 >>
Time Temp. Humidity Pressure Rain* Wind** Luminosity Snow
1787888672 29.44° C 59% 1013.9 hPa 0 mm - 0 W/m² -
1787888368 29.44° C 59% 1013.5 hPa 0 mm - 0 W/m² -
1787888063 29.44° C 58% 1013.7 hPa 0 mm - 0 W/m² -
1787887759 30° C 58% 1013.5 hPa 0 mm - 0 W/m² -
1787887454 30° C 57% 1013.4 hPa 0 mm - 0 W/m² -
1787887149 30° C 57% 1013.3 hPa 0 mm - 0 W/m² -
1787886844 30° C 56% 1013 hPa 0 mm - 0 W/m² -
1787886544 30.56° C 55% 1013.2 hPa 0 mm - 0 W/m² -
1787886239 30.56° C 54% 1013.1 hPa 0 mm - 0 W/m² -
1787885938 30.56° C 54% 1013 hPa 0 mm - 0 W/m² -
1787885636 31.11° C 53% 1012.9 hPa 0 mm - 0 W/m² -
1787885336 31.11° C 52% 1012.7 hPa 0 mm - 0 W/m² -
1787885030 31.67° C 51% 1012.9 hPa 0 mm - 0 W/m² -
1787884726 31.67° C 51% 1012.8 hPa 0 mm - 0 W/m² -
1787884421 31.67° C 51% 1012.7 hPa 0 mm - 0 W/m² -
1787884117 31.67° C 51% 1012.7 hPa 0 mm - 1 W/m² -
1787883812 31.67° C 51% 1012.5 hPa 0 mm - 2 W/m² -
1787883508 32.22° C 51% 1012.6 hPa 0 mm - 3 W/m² -
1787883206 32.22° C 50% 1012.5 hPa 0 mm - 6 W/m² -
1787882901 32.22° C 50% 1012.5 hPa 0 mm - 10 W/m² -
1787882598 32.78° C 50% 1012.6 hPa 0 mm - 15 W/m² -
1787882294 32.78° C 49% 1012.6 hPa 0 mm - 21 W/m² -
1787881988 32.78° C 49% 1012.6 hPa 0 mm - 27 W/m² -
1787881683 33.33° C 48% 1012.4 hPa 0 mm - 33 W/m² -
1787881379 33.89° C 47% 1012.4 hPa 0 mm - 41 W/m² -

* Rain latest hour (hover to see other rain measurements)
** Current wind speed in m/s (hover to see current wind gust speed)